Flag for U.S.A. Weather past 2 weeks in Alpena, Michigan, U.S.A.

Now
35 °F

Sunny.


Feels Like: 29 °F
Forecast: 26 / 45 °F
Wind: 7 mph from North

Location: Alpena County Regional Airport

Current Time: Apr 24, 2015 at 10:00:24 PM

Latest Report: Apr 24, 2015 at 8:54 PM


Visibility: 10 mi

Pressure: 30.05 "Hg

Humidity: 46%

Dew point: 16 °F

Location of AlpenaLocation

Historic Weather in Alpena — Graph

°F

Alpena temperature yesterday

Maximum temperature yesterday: 38 °F (at 5:54 PM)
Minimum temperature yesterday: 28 °F (at 12:54 AM)
Average temperature yesterday: 32 °F

Past Weeks' High & Low Weather Summary

 TemperatureHumidityPressure
High71 °F (Apr 12, 4:54 PM)100% (Apr 10, 2:54 AM)30.47 "Hg (Apr 10, 2:54 AM)
Low24 °F (Apr 24, 4:54 AM)14% (Apr 14, 3:54 PM)29.08 "Hg (Apr 20, 10:54 AM)
Average43 °F63%29.91 "Hg
* Reported Apr 9 8:54 PM — Apr 24 8:54 PM, Alpena, Weather by CustomWeather, © 2015

Note: Actual official high and low records may vary slightly from our data, if they occured in-between our weather recording intervals... More about our weather records

Advertising

Alpena weather history for previous 24 hours

 ConditionsComfort  
Time TempWeatherWind HumidityBarometerVisibility
8:54 PM
Fri, Apr 24
35 °FSunny.7 mph46%30.05 "Hg10 mi
7:54 PM41 °FSunny.12 mph36%30.03 "Hg10 mi
6:54 PM44 °FSunny.14 mph31%30.04 "Hg10 mi
5:54 PM47 °FSunny.13 mph29%30.04 "Hg10 mi
4:54 PM49 °FSunny.16 mph29%30.03 "Hg10 mi
3:54 PM48 °FSunny.10 mph22%30.04 "Hg10 mi
2:54 PM47 °FSunny.13 mph24%30.06 "Hg10 mi
1:54 PM44 °FSunny.12 mph27%30.07 "Hg10 mi
12:54 PM43 °FSunny.13 mph35%30.09 "Hg10 mi
11:54 AM40 °FSunny.7 mph41%30.09 "Hg10 mi
10:54 AM38 °FSunny.8 mph46%30.09 "Hg10 mi
9:54 AM36 °FPartly sunny.10 mph57%30.10 "Hg10 mi
8:54 AM33 °FSunny.12 mph63%30.10 "Hg10 mi
7:54 AM29 °FSunny.7 mph66%30.09 "Hg10 mi
6:54 AM25 °FClear.5 mph75%30.09 "Hg10 mi
5:54 AM25 °FClear.5 mph72%30.07 "Hg10 mi
4:54 AM24 °FClear.3 mph75%30.06 "Hg10 mi
3:54 AM26 °FClear.5 mph69%30.06 "Hg10 mi
2:54 AM26 °FClear.3 mph69%30.06 "Hg10 mi
1:54 AM27 °FClear.5 mph66%30.06 "Hg10 mi
12:54 AM28 °FClear.5 mph72%30.05 "Hg10 mi
11:54 PM
Thu, Apr 23
28 °FClear.3 mph75%30.03 "Hg10 mi
10:54 PM29 °FClear.6 mph75%30.02 "Hg10 mi
Weather by CustomWeather, © 2015

See weather overviewHow to use our weather pages